Погода в Уонгамате

Новая Зеландия     37°12′25″S   175°52′16″E
темп.,
°C
ветер,
м/с
пор.,
м/с
влажн.,
%
обл.,
%
осадки,
мм/ч
давл.,
гПа
погр.,
м
23 января, вс
вс2301:00+13вюв00950 0.0 102026
04:00+12зюз00944 0.0 101825
07:00+13з019115 0.0 101821
10:00+22св1154100 0.0 1017882
13:00+26св2243100 0.0 10151681
16:00+26ссв2342100 0.0 10131744
19:00+22з1458100 0.0 1013733
22:00+16з1483100 0.0 1015128
24 января, пн
пн2401:00+17з1180100 0.0 101446
04:00+17юз1182100 0.0 101332
07:00+17вюв1183100 0.1 101434
10:00+19в1486100 0.1 1014490
13:00+18всв2492100 0.9 1014402
16:00+21св3464100 0.2 10131068
19:00+18св2682100 0.2 1013577
22:00+17св1590100 0.1 1014209
25 января, вт
вт2501:00+17св2786100 0.3 1013386
04:00+16св2799100 3.9 1012437
07:00+15всв2599100 6.4 1012329
10:00+17св2899100 0.8 1012692
13:00+18св2797100 2.8 1011799
16:00+17всв2799100 9.7 1009504
19:00+18всв3898100 11.4 1008680
22:00+19св3899100 1.8 1008675
26 января, ср
ср2601:00+19св2699100 3.1 1007392
04:00+18с1210099 3.8 1005102
07:00+18зюз119961 4.4 100542
10:00+21з248287 0.5 1006771
13:00+24з356532 2.1 10061309
16:00+25зсз375813 1.7 10051464
19:00+24з36594 1.8 10051388
22:00+18з26910 0.0 1007232
27 января, чт
чт2701:00+17з279962 0.0 1008354
04:00+17зюз399314 0.1 1008691
07:00+15зюз311928 0.1 1010595
10:00+20зюз48630 0.0 1011957
13:00+25зюз35374 0.0 10111399
16:00+27зюз23295 0.0 10111750
19:00+24в34516 0.0 1013775
22:00+18св5108960 0.1 1018765